Regional Weather Roundup
Issued by NWS

Home | Current Version | Previous Version | Graphics & Text | Print | Product List | Glossary On
Versions: 1 2 3 4 5 6 7 8 9 10 11 12 13 14 15 16 17 18 19 20 21 22 23 24 25 26 27 28 29 30 31 32 33 34 35 36 37 38 39 40 41 42 43 44 45 46 47 48 49 50
000
ASUS43 KLSX 291007
RWRMO

WEATHER SUMMARY FOR MISSOURI
NATIONAL WEATHER SERVICE SPRINGFIELD MO
500 AM CDT THU SEP 29 2016

NOTE: "FAIR" INDICATES FEW OR NO CLOUDS BELOW 12,000 FEET WITH NO
       SIGNIFICANT WEATHER AND/OR OBSTRUCTIONS TO VISIBILITY.
       CURRENT SKY AND/OR WEATHER CONDITIONS ARE NOT AVAILABLE FOR
       CHILLICOTHE AND FARMINGTON.

MOZ001>031-035>038-043-044-053-054-291100-
...NORTHERN AND WESTERN MISSOURI...

CITY           SKY/WX    TMP DP  RH WIND       PRES   REMARKS
KANSAS CTY INT PTCLDY    49  45  86 N7        30.30R
KANSAS C DTWN  CLEAR     52  48  86 W3        30.30R
LEE`S SUMMIT   CLEAR     51  47  86 N8        30.30R
ST JOSEPH      CLEAR     46  44  93 NW5       30.33R
CHILLICOTHE      N/A     52  49  89 N7        30.31R
KIRKSVILLE     CLEAR     50  48  93 N9        30.27R

$$
MOZ066>068-077>081-088>096-101>105-291100-
...SOUTHWEST MISSOURI...

CITY           SKY/WX    TMP DP  RH WIND       PRES   REMARKS
SPRINGFIELD    CLEAR     49  45  86 NW5       30.24R
JOPLIN         CLEAR     48  46  93 N6        30.27R
BRANSON        CLEAR     48  46  93 NW5       30.24R

$$
MOZ032>034-039>042-045>050-055>058-069>072-291100-
...CENTRAL MISSOURI...

CITY           SKY/WX    TMP DP  RH WIND       PRES   REMARKS
COLUMBIA       CLEAR     50  48  93 NW8       30.23R
JEFFERSON CITY CLEAR     51  49  92 NW5       30.23R
ROLLA          CLEAR     49  47  93 NW7       30.19R
SEDALIA        CLEAR     50  47  89 N6        30.27R
OSAGE BEACH    CLEAR     50  48  93 CALM      30.24R

$$
MOZ051-052-059>065-291100-
...EAST CENTRAL MISSOURI...

CITY           SKY/WX    TMP DP  RH WIND       PRES   REMARKS
ST LOUIS INTL  PTCLDY    55  49  80 NW9       30.14R
SPIRIT OF STL  CLEAR     54  50  86 NW9       30.15R
ST CHARLES     CLEAR     55  50  83 NW12      30.14R

$$
MOZ072>076-082>087-097>100-106>115-291100-
...SOUTH CENTRAL AND SOUTHEAST MISSOURI...

CITY           SKY/WX    TMP DP  RH WIND       PRES   REMARKS
CAPE GIRARDEAU CLEAR     48  46  93 SW5       30.09S
FARMINGTON     CLEAR     51  48  89 NW8       30.14S
POPLAR BLUFF   CLEAR     52  49  89 NW7       30.12S
WEST PLAINS    CLEAR     52  47  83 N9        30.20R

$$



USA.gov is the U.S. government's official web portal to all federal, state and local government web resources and services.